EUTELSAT 36B

Last updated on Thu Oct 30 2025 00:02:48 GMT+0000 (Coordinated Universal Time)

1 36101U 09065A 25302.48113110 .00000122 00000+0 00000+0 0 9995 2 36101 0.0505 19.6065 0006042 200.6736 41.5053 1.00271479 58390
UTC large
Height (km)
Speed (km/s)
/
Latitude / Longitude
Inclination (degrees)
Orbital Period (minutes)
Azimuth
Elevation
Range (km)
Doppler Factor

Next 0 passes for location: London (51.5072 / 0.1276)

Sorry there are no passes over London.